contact:dominique.lefevre@mio.osupytheas.fr, maurice.libes@osupytheas.fr, didier.mallarino@osupytheas.fr
Project:EMSO http://www.emso-fr.org/EMSO-France
Depth: 2436.0 m
Title:EMSO Ligure Ouest : Data MII capteur MICROCAT
DateTime_Computer,Latitude,Longitude,Temperature,Conductivity,Pressure,DateTime_Instrument
DateTime_Computer,Latitude,Longitude,degC,S m-1,dbar,DateTime_Instrument
2022-05-23T00:02:48Z,42.805,6.029,13.3001,4.60034,2470.684,2022-5-23T02:04:30Z
2022-05-23T00:05:51Z,42.805,6.029,13.3003,4.60034,2470.633,2022-5-23T02:07:33Z
2022-05-23T00:08:55Z,42.805,6.029,13.3004,4.60033,2470.661,2022-5-23T02:10:36Z
2022-05-23T00:11:58Z,42.805,6.029,13.3004,4.60033,2470.646,2022-5-23T02:13:39Z
2022-05-23T00:15:01Z,42.805,6.029,13.3003,4.60032,2470.67,2022-5-23T02:16:42Z
2022-05-23T00:18:04Z,42.805,6.029,13.3004,4.60033,2470.684,2022-5-23T02:19:45Z
2022-05-23T00:21:07Z,42.805,6.029,13.3002,4.60033,2470.707,2022-5-23T02:22:49Z
2022-05-23T00:24:10Z,42.805,6.029,13.3000,4.60033,2470.646,2022-5-23T02:25:52Z
2022-05-23T00:27:13Z,42.805,6.029,13.3004,4.60035,2470.646,2022-5-23T02:28:55Z
2022-05-23T00:30:16Z,42.805,6.029,13.3001,4.60033,2470.684,2022-5-23T02:31:58Z
2022-05-23T00:33:20Z,42.805,6.029,13.3003,4.60033,2470.684,2022-5-23T02:35:01Z
2022-05-23T00:36:23Z,42.805,6.029,13.3006,4.60033,2470.67,2022-5-23T02:38:04Z
2022-05-23T00:39:26Z,42.805,6.029,13.3002,4.60035,2470.684,2022-5-23T02:41:07Z
2022-05-23T00:42:29Z,42.805,6.029,13.3004,4.60032,2470.646,2022-5-23T02:44:10Z
2022-05-23T00:45:32Z,42.805,6.029,13.3000,4.60033,2470.67,2022-5-23T02:47:14Z
2022-05-23T00:48:35Z,42.805,6.029,13.3002,4.60032,2470.646,2022-5-23T02:50:17Z
2022-05-23T00:51:38Z,42.805,6.029,13.3000,4.60033,2470.661,2022-5-23T02:53:20Z
2022-05-23T00:54:41Z,42.805,6.029,13.3003,4.60032,2470.684,2022-5-23T02:56:23Z
2022-05-23T00:57:45Z,42.805,6.029,13.2998,4.60031,2470.646,2022-5-23T02:59:26Z
2022-05-23T01:00:48Z,42.805,6.029,13.3003,4.60032,2470.67,2022-5-23T03:02:29Z
2022-05-23T01:03:51Z,42.805,6.029,13.3000,4.60032,2470.646,2022-5-23T03:05:32Z
2022-05-23T01:06:54Z,42.805,6.029,13.3004,4.60033,2470.707,2022-5-23T03:08:35Z
2022-05-23T01:09:57Z,42.805,6.029,13.3003,4.60033,2470.646,2022-5-23T03:11:39Z
2022-05-23T01:13:00Z,42.805,6.029,13.3004,4.60033,2470.67,2022-5-23T03:14:42Z
2022-05-23T01:16:03Z,42.805,6.029,13.3001,4.60033,2470.67,2022-5-23T03:17:45Z
2022-05-23T01:19:06Z,42.805,6.029,13.2997,4.60033,2470.67,2022-5-23T03:20:48Z
2022-05-23T01:22:09Z,42.805,6.029,13.3002,4.60032,2470.693,2022-5-23T03:23:51Z
2022-05-23T01:25:13Z,42.805,6.029,13.3004,4.60032,2470.67,2022-5-23T03:26:54Z
2022-05-23T01:28:16Z,42.805,6.029,13.3006,4.60032,2470.661,2022-5-23T03:29:57Z
2022-05-23T01:31:19Z,42.805,6.029,13.2999,4.60035,2470.707,2022-5-23T03:33:00Z
2022-05-23T01:34:22Z,42.805,6.029,13.3005,4.60033,2470.693,2022-5-23T03:36:03Z
2022-05-23T01:37:25Z,42.805,6.029,13.3001,4.60032,2470.693,2022-5-23T03:39:07Z
2022-05-23T01:40:28Z,42.805,6.029,13.3004,4.60034,2470.684,2022-5-23T03:42:10Z
2022-05-23T01:43:31Z,42.805,6.029,13.3001,4.60033,2470.707,2022-5-23T03:45:13Z
2022-05-23T01:46:34Z,42.805,6.029,13.3003,4.60033,2470.693,2022-5-23T03:48:16Z
2022-05-23T01:49:38Z,42.805,6.029,13.3002,4.60031,2470.67,2022-5-23T03:51:19Z
2022-05-23T01:52:41Z,42.805,6.029,13.3001,4.60031,2470.67,2022-5-23T03:54:22Z
2022-05-23T01:55:44Z,42.805,6.029,13.3001,4.60033,2470.707,2022-5-23T03:57:25Z
2022-05-23T01:58:47Z,42.805,6.029,13.3001,4.60033,2470.707,2022-5-23T04:00:28Z
2022-05-23T02:01:50Z,42.805,6.029,13.2996,4.60032,2470.693,2022-5-23T04:03:32Z
2022-05-23T02:04:53Z,42.805,6.029,13.3002,4.60031,2470.693,2022-5-23T04:06:35Z
2022-05-23T02:07:56Z,42.805,6.029,13.3002,4.60031,2470.67,2022-5-23T04:09:38Z
2022-05-23T02:10:59Z,42.805,6.029,13.3001,4.60032,2470.67,2022-5-23T04:12:41Z
2022-05-23T02:14:02Z,42.805,6.029,13.3005,4.60038,2470.67,2022-5-23T04:15:44Z
2022-05-23T02:17:06Z,42.805,6.029,13.3005,4.60033,2470.684,2022-5-23T04:18:47Z
2022-05-23T02:20:09Z,42.805,6.029,13.3007,4.60034,2470.684,2022-5-23T04:21:50Z
2022-05-23T02:23:12Z,42.805,6.029,13.3006,4.60035,2470.684,2022-5-23T04:24:53Z
2022-05-23T02:26:15Z,42.805,6.029,13.3002,4.60035,2470.67,2022-5-23T04:27:56Z
2022-05-23T02:29:18Z,42.805,6.029,13.3003,4.60039,2470.67,2022-5-23T04:31:00Z
2022-05-23T02:32:21Z,42.805,6.029,13.3002,4.60032,2470.646,2022-5-23T04:34:03Z
2022-05-23T02:35:24Z,42.805,6.029,13.3007,4.60033,2470.693,2022-5-23T04:37:06Z
2022-05-23T02:38:27Z,42.805,6.029,13.3003,4.60033,2470.684,2022-5-23T04:40:09Z
2022-05-23T02:41:31Z,42.805,6.029,13.3001,4.60033,2470.67,2022-5-23T04:43:12Z
2022-05-23T02:44:34Z,42.805,6.029,13.3004,4.60033,2470.684,2022-5-23T04:46:15Z
2022-05-23T02:47:37Z,42.805,6.029,13.3004,4.60034,2470.67,2022-5-23T04:49:18Z
2022-05-23T02:50:40Z,42.805,6.029,13.3003,4.60032,2470.684,2022-5-23T04:52:21Z
2022-05-23T02:53:43Z,42.805,6.029,13.3009,4.60033,2470.684,2022-5-23T04:55:25Z
2022-05-23T02:56:46Z,42.805,6.029,13.3004,4.60034,2470.684,2022-5-23T04:58:28Z
2022-05-23T02:59:49Z,42.805,6.029,13.3005,4.60033,2470.646,2022-5-23T05:01:31Z
2022-05-23T03:02:52Z,42.805,6.029,13.3002,4.60033,2470.67,2022-5-23T05:04:34Z
2022-05-23T03:05:56Z,42.805,6.029,13.3006,4.60033,2470.693,2022-5-23T05:07:37Z
2022-05-23T03:08:59Z,42.805,6.029,13.3002,4.60033,2470.646,2022-5-23T05:10:40Z
2022-05-23T03:12:02Z,42.805,6.029,13.3005,4.60034,2470.646,2022-5-23T05:13:43Z
2022-05-23T03:15:05Z,42.805,6.029,13.3001,4.60036,2470.646,2022-5-23T05:16:46Z
2022-05-23T03:18:08Z,42.805,6.029,13.3004,4.60036,2470.661,2022-5-23T05:19:50Z
2022-05-23T03:21:11Z,42.805,6.029,13.3004,4.60033,2470.684,2022-5-23T05:22:53Z
2022-05-23T03:24:14Z,42.805,6.029,13.3004,4.60033,2470.6,2022-5-23T05:25:56Z
2022-05-23T03:27:17Z,42.805,6.029,13.3004,4.60033,2470.661,2022-5-23T05:28:59Z
2022-05-23T03:30:21Z,42.805,6.029,13.3008,4.60033,2470.646,2022-5-23T05:32:02Z
2022-05-23T03:33:24Z,42.805,6.029,13.3005,4.60034,2470.661,2022-5-23T05:35:05Z
2022-05-23T03:36:27Z,42.805,6.029,13.3006,4.60033,2470.707,2022-5-23T05:38:08Z
2022-05-23T03:39:30Z,42.805,6.029,13.3002,4.60037,2470.624,2022-5-23T05:41:11Z
2022-05-23T03:42:33Z,42.805,6.029,13.3004,4.60034,2470.646,2022-5-23T05:44:15Z
2022-05-23T03:45:36Z,42.805,6.029,13.3006,4.60035,2470.684,2022-5-23T05:47:18Z
2022-05-23T03:48:39Z,42.805,6.029,13.3007,4.60034,2470.67,2022-5-23T05:50:21Z
2022-05-23T03:51:42Z,42.805,6.029,13.3001,4.60034,2470.661,2022-5-23T05:53:24Z
2022-05-23T03:54:45Z,42.805,6.029,13.3006,4.60034,2470.684,2022-5-23T05:56:27Z
2022-05-23T03:57:49Z,42.805,6.029,13.3004,4.60034,2470.646,2022-5-23T05:59:30Z
2022-05-23T04:00:52Z,42.805,6.029,13.3004,4.60034,2470.624,2022-5-23T06:02:33Z
2022-05-23T04:03:55Z,42.805,6.029,13.3004,4.60034,2470.646,2022-5-23T06:05:36Z
2022-05-23T04:06:58Z,42.805,6.029,13.3000,4.60034,2470.624,2022-5-23T06:08:39Z
2022-05-23T04:10:01Z,42.805,6.029,13.3009,4.60035,2470.661,2022-5-23T06:11:43Z
2022-05-23T04:13:04Z,42.805,6.029,13.3006,4.60034,2470.646,2022-5-23T06:14:46Z
2022-05-23T04:16:07Z,42.805,6.029,13.3004,4.60034,2470.637,2022-5-23T06:17:49Z
2022-05-23T04:19:10Z,42.805,6.029,13.3006,4.60036,2470.624,2022-5-23T06:20:52Z
2022-05-23T04:22:14Z,42.805,6.029,13.3004,4.60035,2470.646,2022-5-23T06:23:55Z
2022-05-23T04:25:17Z,42.805,6.029,13.3006,4.60035,2470.661,2022-5-23T06:26:58Z
2022-05-23T04:28:20Z,42.805,6.029,13.3006,4.60041,2470.624,2022-5-23T06:30:01Z
2022-05-23T04:31:23Z,42.805,6.029,13.3009,4.60035,2470.67,2022-5-23T06:33:04Z
2022-05-23T04:34:26Z,42.805,6.029,13.3009,4.60035,2470.614,2022-5-23T06:36:08Z
2022-05-23T04:37:29Z,42.805,6.029,13.3006,4.60037,2470.6,2022-5-23T06:39:11Z
2022-05-23T04:40:32Z,42.805,6.029,13.3006,4.60035,2470.646,2022-5-23T06:42:14Z
2022-05-23T04:43:35Z,42.805,6.029,13.3007,4.60037,2470.6,2022-5-23T06:45:17Z
2022-05-23T04:46:39Z,42.805,6.029,13.3002,4.60034,2470.637,2022-5-23T06:48:20Z
2022-05-23T04:49:42Z,42.805,6.029,13.3005,4.60034,2470.577,2022-5-23T06:51:23Z
2022-05-23T04:52:45Z,42.805,6.029,13.3009,4.60035,2470.614,2022-5-23T06:54:26Z
2022-05-23T04:55:48Z,42.805,6.029,13.3008,4.60035,2470.6,2022-5-23T06:57:29Z
2022-05-23T04:58:51Z,42.805,6.029,13.3009,4.60036,2470.624,2022-5-23T07:00:33Z
2022-05-23T05:01:54Z,42.805,6.029,13.3005,4.60042,2470.61,2022-5-23T07:03:36Z
2022-05-23T05:04:57Z,42.805,6.029,13.3009,4.60034,2470.637,2022-5-23T07:06:39Z
2022-05-23T05:08:00Z,42.805,6.029,13.3005,4.60034,2470.6,2022-5-23T07:09:42Z
2022-05-23T05:11:04Z,42.805,6.029,13.3006,4.60035,2470.591,2022-5-23T07:12:45Z
2022-05-23T05:14:07Z,42.805,6.029,13.3005,4.60038,2470.591,2022-5-23T07:15:48Z
2022-05-23T05:17:10Z,42.805,6.029,13.3006,4.60036,2470.6,2022-5-23T07:18:51Z
2022-05-23T05:20:13Z,42.805,6.029,13.3006,4.60037,2470.553,2022-5-23T07:21:54Z
2022-05-23T05:23:16Z,42.805,6.029,13.3005,4.60035,2470.614,2022-5-23T07:24:58Z
2022-05-23T05:26:19Z,42.805,6.029,13.3003,4.60034,2470.6,2022-5-23T07:28:01Z
2022-05-23T05:29:22Z,42.805,6.029,13.3006,4.60034,2470.577,2022-5-23T07:31:04Z
2022-05-23T05:32:25Z,42.805,6.029,13.3004,4.60035,2470.6,2022-5-23T07:34:07Z
2022-05-23T05:35:28Z,42.805,6.029,13.3003,4.60034,2470.591,2022-5-23T07:37:10Z
2022-05-23T05:38:32Z,42.805,6.029,13.3000,4.60033,2470.614,2022-5-23T07:40:13Z
2022-05-23T05:41:35Z,42.805,6.029,13.3006,4.60034,2470.637,2022-5-23T07:43:16Z
2022-05-23T05:44:38Z,42.805,6.029,13.3007,4.60033,2470.577,2022-5-23T07:46:19Z
2022-05-23T05:47:41Z,42.805,6.029,13.2999,4.60035,2470.6,2022-5-23T07:49:22Z
2022-05-23T05:50:44Z,42.805,6.029,13.3002,4.60033,2470.577,2022-5-23T07:52:26Z
2022-05-23T05:53:47Z,42.805,6.029,13.3003,4.60032,2470.567,2022-5-23T07:55:29Z
2022-05-23T05:56:50Z,42.805,6.029,13.3003,4.60034,2470.591,2022-5-23T07:58:32Z
2022-05-23T05:59:53Z,42.805,6.029,13.3002,4.60033,2470.553,2022-5-23T08:01:35Z
2022-05-23T06:02:57Z,42.805,6.029,13.3000,4.60033,2470.577,2022-5-23T08:04:38Z
2022-05-23T06:06:00Z,42.805,6.029,13.3004,4.60031,2470.577,2022-5-23T08:07:41Z
2022-05-23T06:09:03Z,42.805,6.029,13.3004,4.60033,2470.553,2022-5-23T08:10:44Z
2022-05-23T06:12:06Z,42.805,6.029,13.3007,4.60033,2470.577,2022-5-23T08:13:47Z
2022-05-23T06:15:09Z,42.805,6.029,13.3005,4.60033,2470.544,2022-5-23T08:16:51Z
2022-05-23T06:18:12Z,42.805,6.029,13.3001,4.60032,2470.577,2022-5-23T08:19:54Z
2022-05-23T06:21:15Z,42.805,6.029,13.2999,4.60035,2470.53,2022-5-23T08:22:57Z
2022-05-23T06:24:18Z,42.805,6.029,13.3007,4.60032,2470.53,2022-5-23T08:26:00Z
2022-05-23T06:27:22Z,42.805,6.029,13.2998,4.60034,2470.52,2022-5-23T08:29:03Z
2022-05-23T06:30:25Z,42.805,6.029,13.3000,4.60031,2470.53,2022-5-23T08:32:06Z
2022-05-23T06:33:28Z,42.805,6.029,13.3004,4.60031,2470.53,2022-5-23T08:35:09Z
2022-05-23T06:36:31Z,42.805,6.029,13.3004,4.60031,2470.553,2022-5-23T08:38:12Z
2022-05-23T06:39:34Z,42.805,6.029,13.3005,4.60032,2470.553,2022-5-23T08:41:16Z
2022-05-23T06:42:37Z,42.805,6.029,13.3000,4.60031,2470.53,2022-5-23T08:44:19Z
2022-05-23T06:45:40Z,42.805,6.029,13.3000,4.60031,2470.553,2022-5-23T08:47:22Z
2022-05-23T06:48:43Z,42.805,6.029,13.3001,4.60031,2470.544,2022-5-23T08:50:25Z
2022-05-23T06:51:47Z,42.805,6.029,13.3003,4.60032,2470.53,2022-5-23T08:53:28Z
2022-05-23T06:54:50Z,42.805,6.029,13.2998,4.60029,2470.544,2022-5-23T08:56:31Z
2022-05-23T06:57:53Z,42.805,6.029,13.3001,4.60030,2470.53,2022-5-23T08:59:34Z
2022-05-23T07:00:56Z,42.805,6.029,13.3000,4.60031,2470.53,2022-5-23T09:02:37Z
2022-05-23T07:03:59Z,42.805,6.029,13.3000,4.60032,2470.507,2022-5-23T09:05:41Z
2022-05-23T07:07:02Z,42.805,6.029,13.3004,4.60031,2470.52,2022-5-23T09:08:44Z
2022-05-23T07:10:05Z,42.805,6.029,13.3000,4.60031,2470.53,2022-5-23T09:11:47Z
2022-05-23T07:13:08Z,42.805,6.029,13.3001,4.60030,2470.52,2022-5-23T09:14:50Z
2022-05-23T07:16:11Z,42.805,6.029,13.3000,4.60031,2470.507,2022-5-23T09:17:53Z
2022-05-23T07:19:15Z,42.805,6.029,13.3003,4.60032,2470.53,2022-5-23T09:20:56Z
2022-05-23T07:22:18Z,42.805,6.029,13.3003,4.60032,2470.52,2022-5-23T09:23:59Z
2022-05-23T07:25:21Z,42.805,6.029,13.2999,4.60031,2470.507,2022-5-23T09:27:02Z
2022-05-23T07:28:24Z,42.805,6.029,13.2998,4.60030,2470.52,2022-5-23T09:30:05Z
2022-05-23T07:31:27Z,42.805,6.029,13.3002,4.60031,2470.497,2022-5-23T09:33:09Z
2022-05-23T07:34:30Z,42.805,6.029,13.3003,4.60033,2470.507,2022-5-23T09:36:12Z
2022-05-23T07:37:33Z,42.805,6.029,13.3003,4.60031,2470.544,2022-5-23T09:39:15Z
2022-05-23T07:40:36Z,42.805,6.029,13.3004,4.60033,2470.507,2022-5-23T09:42:18Z
2022-05-23T07:43:40Z,42.805,6.029,13.3004,4.60034,2470.507,2022-5-23T09:45:21Z
2022-05-23T07:46:43Z,42.805,6.029,13.3003,4.60029,2470.544,2022-5-23T09:48:24Z
2022-05-23T07:49:46Z,42.805,6.029,13.3002,4.60031,2470.507,2022-5-23T09:51:27Z
2022-05-23T07:52:49Z,42.805,6.029,13.3002,4.60031,2470.497,2022-5-23T09:54:30Z
2022-05-23T07:55:52Z,42.805,6.029,13.3004,4.60031,2470.497,2022-5-23T09:57:34Z
2022-05-23T07:58:55Z,42.805,6.029,13.3000,4.60031,2470.497,2022-5-23T10:00:37Z
2022-05-23T08:01:58Z,42.805,6.029,13.3004,4.60031,2470.497,2022-5-23T10:03:40Z
2022-05-23T08:05:01Z,42.805,6.029,13.3000,4.60033,2470.507,2022-5-23T10:06:43Z
2022-05-23T08:08:04Z,42.805,6.029,13.3004,4.60031,2470.507,2022-5-23T10:09:46Z
2022-05-23T08:11:08Z,42.805,6.029,13.3003,4.60032,2470.52,2022-5-23T10:12:49Z
2022-05-23T08:14:11Z,42.805,6.029,13.3000,4.60031,2470.52,2022-5-23T10:15:52Z
2022-05-23T08:17:14Z,42.805,6.029,13.3003,4.60031,2470.53,2022-5-23T10:18:55Z
2022-05-23T08:20:17Z,42.805,6.029,13.3000,4.60031,2470.507,2022-5-23T10:21:59Z
2022-05-23T08:23:20Z,42.805,6.029,13.3002,4.60031,2470.483,2022-5-23T10:25:02Z
2022-05-23T08:26:23Z,42.805,6.029,13.2999,4.60031,2470.507,2022-5-23T10:28:05Z
2022-05-23T08:29:26Z,42.805,6.029,13.3003,4.60031,2470.53,2022-5-23T10:31:08Z
2022-05-23T08:32:30Z,42.805,6.029,13.2997,4.60031,2470.483,2022-5-23T10:34:11Z
2022-05-23T08:35:33Z,42.805,6.029,13.3001,4.60031,2470.507,2022-5-23T10:37:14Z
2022-05-23T08:38:36Z,42.805,6.029,13.3004,4.60031,2470.507,2022-5-23T10:40:17Z
2022-05-23T08:41:39Z,42.805,6.029,13.3004,4.60033,2470.507,2022-5-23T10:43:20Z
2022-05-23T08:44:42Z,42.805,6.029,13.3002,4.60031,2470.483,2022-5-23T10:46:24Z
2022-05-23T08:47:45Z,42.805,6.029,13.3002,4.60033,2470.507,2022-5-23T10:49:27Z
2022-05-23T08:50:48Z,42.805,6.029,13.3003,4.60031,2470.497,2022-5-23T10:52:30Z
2022-05-23T08:53:51Z,42.805,6.029,13.3006,4.60032,2470.507,2022-5-23T10:55:33Z
2022-05-23T08:56:55Z,42.805,6.029,13.3005,4.60031,2470.497,2022-5-23T10:58:36Z
2022-05-23T08:59:58Z,42.805,6.029,13.3000,4.60031,2470.46,2022-5-23T11:01:39Z
2022-05-23T09:03:01Z,42.805,6.029,13.3002,4.60032,2470.497,2022-5-23T11:04:42Z
2022-05-23T09:06:04Z,42.805,6.029,13.3001,4.60033,2470.474,2022-5-23T11:07:45Z
2022-05-23T09:09:07Z,42.805,6.029,13.3002,4.60032,2470.483,2022-5-23T11:10:49Z
2022-05-23T09:12:10Z,42.805,6.029,13.2999,4.60033,2470.497,2022-5-23T11:13:52Z
2022-05-23T09:15:13Z,42.805,6.029,13.3000,4.60032,2470.497,2022-5-23T11:16:55Z
2022-05-23T09:18:16Z,42.805,6.029,13.3004,4.60033,2470.497,2022-5-23T11:19:58Z
2022-05-23T09:21:20Z,42.805,6.029,13.3006,4.60033,2470.52,2022-5-23T11:23:01Z
2022-05-23T09:24:23Z,42.805,6.029,13.3002,4.60033,2470.474,2022-5-23T11:26:04Z
2022-05-23T09:27:26Z,42.805,6.029,13.3004,4.60031,2470.52,2022-5-23T11:29:07Z
2022-05-23T09:30:29Z,42.805,6.029,13.3004,4.60033,2470.483,2022-5-23T11:32:10Z
2022-05-23T09:33:32Z,42.805,6.029,13.3005,4.60033,2470.497,2022-5-23T11:35:14Z
2022-05-23T09:36:35Z,42.805,6.029,13.3004,4.60032,2470.483,2022-5-23T11:38:17Z
2022-05-23T09:39:38Z,42.805,6.029,13.3002,4.60033,2470.507,2022-5-23T11:41:20Z
2022-05-23T09:42:41Z,42.805,6.029,13.3000,4.60033,2470.507,2022-5-23T11:44:23Z
2022-05-23T09:45:45Z,42.805,6.029,13.3002,4.60032,2470.483,2022-5-23T11:47:26Z
2022-05-23T09:48:48Z,42.805,6.029,13.3003,4.60033,2470.46,2022-5-23T11:50:29Z
2022-05-23T09:51:51Z,42.805,6.029,13.3002,4.60033,2470.52,2022-5-23T11:53:32Z
2022-05-23T09:54:54Z,42.805,6.029,13.3004,4.60033,2470.52,2022-5-23T11:56:36Z
2022-05-23T09:57:57Z,42.805,6.029,13.3000,4.60033,2470.483,2022-5-23T11:59:39Z
2022-05-23T10:01:00Z,42.805,6.029,13.3003,4.60033,2470.507,2022-5-23T12:02:42Z
2022-05-23T10:04:03Z,42.805,6.029,13.3009,4.60033,2470.507,2022-5-23T12:05:45Z
2022-05-23T10:07:06Z,42.805,6.029,13.3001,4.60033,2470.497,2022-5-23T12:08:48Z
2022-05-23T10:10:10Z,42.805,6.029,13.3004,4.60040,2470.497,2022-5-23T12:11:51Z
2022-05-23T10:13:13Z,42.805,6.029,13.3004,4.60033,2470.483,2022-5-23T12:14:54Z
2022-05-23T10:16:16Z,42.805,6.029,13.3004,4.60032,2470.507,2022-5-23T12:17:57Z
2022-05-23T10:19:19Z,42.805,6.029,13.3002,4.60034,2470.483,2022-5-23T12:21:01Z
2022-05-23T10:22:22Z,42.805,6.029,13.3004,4.60036,2470.53,2022-5-23T12:24:04Z
2022-05-23T10:25:25Z,42.805,6.029,13.3004,4.60033,2470.52,2022-5-23T12:27:07Z
2022-05-23T10:28:28Z,42.805,6.029,13.3005,4.60033,2470.507,2022-5-23T12:30:10Z
2022-05-23T10:31:31Z,42.805,6.029,13.3003,4.60033,2470.544,2022-5-23T12:33:13Z
2022-05-23T10:34:35Z,42.805,6.029,13.3003,4.60039,2470.52,2022-5-23T12:36:16Z
2022-05-23T10:37:38Z,42.805,6.029,13.3006,4.60033,2470.52,2022-5-23T12:39:19Z
2022-05-23T10:40:41Z,42.805,6.029,13.3005,4.60032,2470.52,2022-5-23T12:42:22Z
2022-05-23T10:43:44Z,42.805,6.029,13.3004,4.60033,2470.507,2022-5-23T12:45:26Z
2022-05-23T10:46:47Z,42.805,6.029,13.3007,4.60035,2470.507,2022-5-23T12:48:29Z
2022-05-23T10:49:50Z,42.805,6.029,13.3004,4.60033,2470.507,2022-5-23T12:51:32Z
2022-05-23T10:52:53Z,42.805,6.029,13.3004,4.60035,2470.507,2022-5-23T12:54:35Z
2022-05-23T10:55:56Z,42.805,6.029,13.3003,4.60033,2470.52,2022-5-23T12:57:38Z
2022-05-23T10:59:00Z,42.805,6.029,13.3004,4.60032,2470.53,2022-5-23T13:00:41Z
2022-05-23T11:02:03Z,42.805,6.029,13.3003,4.60032,2470.52,2022-5-23T13:03:44Z
2022-05-23T11:05:06Z,42.805,6.029,13.3003,4.60033,2470.507,2022-5-23T13:06:47Z
2022-05-23T11:08:09Z,42.805,6.029,13.3004,4.60037,2470.497,2022-5-23T13:09:51Z
2022-05-23T11:11:12Z,42.805,6.029,13.3006,4.60034,2470.507,2022-5-23T13:12:54Z
2022-05-23T11:14:15Z,42.805,6.029,13.3004,4.60036,2470.507,2022-5-23T13:15:57Z
2022-05-23T11:17:18Z,42.805,6.029,13.3004,4.60033,2470.507,2022-5-23T13:19:00Z
2022-05-23T11:20:21Z,42.805,6.029,13.3003,4.60033,2470.507,2022-5-23T13:22:03Z
2022-05-23T11:23:25Z,42.805,6.029,13.3004,4.60032,2470.544,2022-5-23T13:25:06Z
2022-05-23T11:26:28Z,42.805,6.029,13.3003,4.60031,2470.483,2022-5-23T13:28:09Z
2022-05-23T11:29:31Z,42.805,6.029,13.3000,4.60033,2470.507,2022-5-23T13:31:12Z
2022-05-23T11:32:34Z,42.805,6.029,13.3002,4.60033,2470.544,2022-5-23T13:34:16Z
2022-05-23T11:35:37Z,42.805,6.029,13.3003,4.60033,2470.483,2022-5-23T13:37:19Z
2022-05-23T11:38:40Z,42.805,6.029,13.3002,4.60033,2470.52,2022-5-23T13:40:22Z
2022-05-23T11:41:43Z,42.805,6.029,13.3004,4.60033,2470.507,2022-5-23T13:43:25Z
2022-05-23T11:44:46Z,42.805,6.029,13.3006,4.60032,2470.53,2022-5-23T13:46:28Z
2022-05-23T11:47:50Z,42.805,6.029,13.3002,4.60032,2470.53,2022-5-23T13:49:31Z
2022-05-23T11:50:53Z,42.805,6.029,13.3005,4.60032,2470.53,2022-5-23T13:52:34Z
2022-05-23T11:53:56Z,42.805,6.029,13.3002,4.60033,2470.516,2022-5-23T13:55:37Z
2022-05-23T11:56:59Z,42.805,6.029,13.3000,4.60032,2470.53,2022-5-23T13:58:41Z
2022-05-23T12:00:02Z,42.805,6.029,13.3006,4.60034,2470.544,2022-5-23T14:01:44Z
2022-05-23T12:03:05Z,42.805,6.029,13.3006,4.60036,2470.567,2022-5-23T14:04:47Z
2022-05-23T12:06:08Z,42.805,6.029,13.3001,4.60033,2470.483,2022-5-23T14:07:50Z
2022-05-23T12:09:11Z,42.805,6.029,13.3005,4.60034,2470.53,2022-5-23T14:10:53Z
2022-05-23T12:12:15Z,42.805,6.029,13.3005,4.60036,2470.567,2022-5-23T14:13:56Z
2022-05-23T12:15:18Z,42.805,6.029,13.3005,4.60036,2470.53,2022-5-23T14:16:59Z
2022-05-23T12:18:21Z,42.805,6.029,13.3005,4.60034,2470.53,2022-5-23T14:20:02Z
2022-05-23T12:21:24Z,42.805,6.029,13.3005,4.60035,2470.53,2022-5-23T14:23:06Z
2022-05-23T12:24:27Z,42.805,6.029,13.3004,4.60037,2470.544,2022-5-23T14:26:09Z
2022-05-23T12:27:30Z,42.805,6.029,13.3008,4.60035,2470.553,2022-5-23T14:29:12Z
2022-05-23T12:30:33Z,42.805,6.029,13.3004,4.60034,2470.553,2022-5-23T14:32:15Z
2022-05-23T12:33:36Z,42.805,6.029,13.3006,4.60036,2470.567,2022-5-23T14:35:18Z
2022-05-23T12:36:40Z,42.805,6.029,13.3007,4.60039,2470.577,2022-5-23T14:38:21Z
2022-05-23T12:39:43Z,42.805,6.029,13.3005,4.60033,2470.53,2022-5-23T14:41:24Z
2022-05-23T12:42:46Z,42.805,6.029,13.3006,4.60034,2470.53,2022-5-23T14:44:27Z
2022-05-23T12:45:49Z,42.805,6.029,13.3007,4.60037,2470.567,2022-5-23T14:47:31Z
2022-05-23T12:48:52Z,42.805,6.029,13.3008,4.60034,2470.544,2022-5-23T14:50:34Z
2022-05-23T12:51:55Z,42.805,6.029,13.3003,4.60033,2470.577,2022-5-23T14:53:37Z
2022-05-23T12:54:58Z,42.805,6.029,13.3004,4.60034,2470.53,2022-5-23T14:56:40Z
2022-05-23T12:58:01Z,42.805,6.029,13.3002,4.60033,2470.507,2022-5-23T14:59:43Z
2022-05-23T13:01:05Z,42.805,6.029,13.3004,4.60033,2470.591,2022-5-23T15:02:46Z
2022-05-23T13:04:08Z,42.805,6.029,13.3004,4.60042,2470.544,2022-5-23T15:05:49Z
2022-05-23T13:07:11Z,42.805,6.029,13.3006,4.60034,2470.567,2022-5-23T15:08:52Z
2022-05-23T13:10:14Z,42.805,6.029,13.3006,4.60034,2470.53,2022-5-23T15:11:56Z
2022-05-23T13:13:17Z,42.805,6.029,13.3001,4.60036,2470.52,2022-5-23T15:14:59Z
2022-05-23T13:16:20Z,42.805,6.029,13.3002,4.60034,2470.53,2022-5-23T15:18:02Z
2022-05-23T13:19:23Z,42.805,6.029,13.3006,4.60035,2470.53,2022-5-23T15:21:05Z
2022-05-23T13:22:26Z,42.805,6.029,13.3004,4.60033,2470.553,2022-5-23T15:24:08Z
2022-05-23T13:25:30Z,42.805,6.029,13.3007,4.60038,2470.544,2022-5-23T15:27:11Z
2022-05-23T13:28:33Z,42.805,6.029,13.3006,4.60033,2470.544,2022-5-23T15:30:14Z
2022-05-23T13:31:36Z,42.805,6.029,13.3001,4.60033,2470.53,2022-5-23T15:33:17Z
2022-05-23T13:34:39Z,42.805,6.029,13.3004,4.60035,2470.53,2022-5-23T15:36:21Z
2022-05-23T13:37:42Z,42.805,6.029,13.3005,4.60033,2470.53,2022-5-23T15:39:24Z
2022-05-23T13:40:45Z,42.805,6.029,13.3007,4.60034,2470.553,2022-5-23T15:42:27Z
2022-05-23T13:43:48Z,42.805,6.029,13.3008,4.60033,2470.553,2022-5-23T15:45:30Z
2022-05-23T13:46:51Z,42.805,6.029,13.3006,4.60034,2470.577,2022-5-23T15:48:33Z
2022-05-23T13:49:55Z,42.805,6.029,13.3000,4.60033,2470.53,2022-5-23T15:51:36Z
2022-05-23T13:52:58Z,42.805,6.029,13.3004,4.60033,2470.563,2022-5-23T15:54:39Z
2022-05-23T13:56:01Z,42.805,6.029,13.3006,4.60036,2470.553,2022-5-23T15:57:42Z
2022-05-23T13:59:04Z,42.805,6.029,13.3004,4.60035,2470.53,2022-5-23T16:00:46Z
2022-05-23T14:02:07Z,42.805,6.029,13.3003,4.60033,2470.553,2022-5-23T16:03:49Z
2022-05-23T14:05:10Z,42.805,6.029,13.3001,4.60036,2470.544,2022-5-23T16:06:52Z
2022-05-23T14:08:13Z,42.805,6.029,13.3003,4.60033,2470.577,2022-5-23T16:09:55Z
2022-05-23T14:11:16Z,42.805,6.029,13.3009,4.60033,2470.553,2022-5-23T16:12:58Z
2022-05-23T14:14:20Z,42.805,6.029,13.3002,4.60033,2470.507,2022-5-23T16:16:01Z
2022-05-23T14:17:23Z,42.805,6.029,13.3003,4.60033,2470.567,2022-5-23T16:19:04Z
2022-05-23T14:20:26Z,42.805,6.029,13.3004,4.60033,2470.567,2022-5-23T16:22:07Z
2022-05-23T14:23:29Z,42.805,6.029,13.3006,4.60036,2470.567,2022-5-23T16:25:11Z
2022-05-23T14:26:32Z,42.805,6.029,13.3004,4.60032,2470.544,2022-5-23T16:28:14Z
2022-05-23T14:29:35Z,42.805,6.029,13.3005,4.60033,2470.553,2022-5-23T16:31:17Z
2022-05-23T14:32:38Z,42.805,6.029,13.3006,4.60033,2470.553,2022-5-23T16:34:20Z
2022-05-23T14:35:41Z,42.805,6.029,13.3004,4.60035,2470.591,2022-5-23T16:37:23Z
2022-05-23T14:38:45Z,42.805,6.029,13.3001,4.60034,2470.591,2022-5-23T16:40:26Z
2022-05-23T14:41:48Z,42.805,6.029,13.3005,4.60034,2470.53,2022-5-23T16:43:29Z
2022-05-23T14:44:51Z,42.805,6.029,13.3007,4.60033,2470.53,2022-5-23T16:46:32Z
2022-05-23T14:47:54Z,42.805,6.029,13.2998,4.60032,2470.553,2022-5-23T16:49:36Z
2022-05-23T14:50:57Z,42.805,6.029,13.3003,4.60031,2470.553,2022-5-23T16:52:39Z
2022-05-23T14:54:00Z,42.805,6.029,13.3003,4.60031,2470.577,2022-5-23T16:55:42Z
2022-05-23T14:57:03Z,42.805,6.029,13.3007,4.60032,2470.53,2022-5-23T16:58:45Z
2022-05-23T15:00:06Z,42.805,6.029,13.3003,4.60033,2470.53,2022-5-23T17:01:48Z
2022-05-23T15:03:10Z,42.805,6.029,13.3001,4.60031,2470.53,2022-5-23T17:04:51Z
2022-05-23T15:06:13Z,42.805,6.029,13.3004,4.60033,2470.553,2022-5-23T17:07:54Z
2022-05-23T15:09:16Z,42.805,6.029,13.3004,4.60032,2470.553,2022-5-23T17:10:57Z
2022-05-23T15:12:19Z,42.805,6.029,13.3004,4.60033,2470.567,2022-5-23T17:14:01Z
2022-05-23T15:15:22Z,42.805,6.029,13.3003,4.60032,2470.53,2022-5-23T17:17:04Z